H1 CPF 2 NER 2025 12 1 9 335 01 glonass142 H2 2001801 9142 45358 2025 12 1 0 0 0 2025 12 4 23 45 0 900 1 1 0 0 0 1 H9 10 0 61010 0.00000 0 2941905.063 22755983.071 -11097547.550 10 0 61010 900.00000 0 2455067.216 21290109.843 -13793373.665 10 0 61010 1800.00000 0 1722235.675 19580845.791 -16220582.510 10 0 61010 2700.00000 0 726453.937 17687576.594 -18331873.030 10 0 61010 3600.00000 0 -537147.618 15673944.907 -20086106.712 10 0 61010 4500.00000 0 -2060890.798 13605258.070 -21449115.750 10 0 61010 5400.00000 0 -3824624.964 11545844.323 -22394372.785 10 0 61010 6300.00000 0 -5796336.702 9556468.971 -22903508.987 10 0 61010 7200.00000 0 -7933269.041 7691919.151 -22966670.445 10 0 61010 8100.00000 0 -10183503.864 5998858.376 -22582706.146 10 0 61010 9000.00000 0 -12487941.507 4514040.340 -21759184.327 10 0 61010 9900.00000 0 -14782594.761 3262955.983 -20512237.330 10 0 61010 10800.00000 0 -17001101.324 2258969.277 -18866238.575 10 0 61010 11700.00000 0 -19077349.559 1502976.348 -16853318.461 10 0 61010 12600.00000 0 -20948107.722 983600.384 -14512729.242 10 0 61010 13500.00000 0 -22555546.799 677912.075 -11890071.794 10 0 61010 14400.00000 0 -23849551.683 552643.178 -9036399.922 10 0 61010 15300.00000 0 -24789724.386 565840.076 -6007220.204 10 0 61010 16200.00000 0 -25346996.155 668885.792 -2861407.407 10 0 61010 17100.00000 0 -25504781.864 808803.544 339942.958 10 0 61010 18000.00000 0 -25259629.359 930743.398 3534702.192 10 0 61010 18900.00000 0 -24621337.788 980546.105 6660912.754 10 0 61010 19800.00000 0 -23612541.067 907275.390 9657985.965 10 0 61010 20700.00000 0 -22267775.033 665611.597 12467869.963 10 0 61010 21600.00000 0 -20632068.160 218005.772 15036165.760 10 0 61010 22500.00000 0 -18759115.272 -463496.390 17313170.467 10 0 61010 23400.00000 0 -16709110.723 -1395837.349 19254828.421 10 0 61010 24300.00000 0 -14546331.168 -2583996.791 20823572.930 10 0 61010 25200.00000 0 -12336567.992 -4020547.116 21989043.517 10 0 61010 26100.00000 0 -10144515.317 -5685734.541 22728665.884 10 0 61010 27000.00000 0 -8031220.938 -7548083.457 23028084.345 10 0 61010 27900.00000 0 -6051704.800 -9565500.180 22881438.993 10 0 61010 28800.00000 0 -4252842.593 -11686831.776 22291482.506 10 0 61010 29700.00000 0 -2671601.163 -13853816.934 21269534.181 10 0 61010 30600.00000 0 -1333698.108 -16003349.638 19835271.481 10 0 61010 31500.00000 0 -252740.588 -18069963.202 18016362.149 10 0 61010 32400.00000 0 570121.152 -19988432.797 15847942.765 10 0 61010 33300.00000 0 1146011.282 -21696389.193 13371952.378 10 0 61010 34200.00000 0 1497624.423 -23136835.288 10636332.717 10 0 61010 35100.00000 0 1658029.616 -24260460.432 7694109.161 10 0 61010 36000.00000 0 1669032.266 -25027655.329 4602369.226 10 0 61010 36900.00000 0 1579163.006 -25410142.243 1421157.777 10 0 61010 37800.00000 0 1441378.506 -25392150.941 -1787689.864 10 0 61010 38700.00000 0 1310571.856 -24971089.616 -4961754.042 10 0 61010 39600.00000 0 1240998.686 -24157681.211 -8039252.056 10 0 61010 40500.00000 0 1283729.155 -22975558.148 -10960249.968 10 0 61010 41400.00000 0 1484235.216 -21460331.537 -13667840.264 10 0 61010 42300.00000 0 1880216.968 -19658173.334 -16109261.228 10 0 61010 43200.00000 0 2499761.913 -17623970.775 -18236935.138 10 0 61010 44100.00000 0 3359916.714 -15419130.650 -20009404.096 10 0 61010 45000.00000 0 4465733.472 -13109125.876 -21392144.501 10 0 61010 45900.00000 0 5809832.187 -10760887.707 -22358243.843 10 0 61010 46800.00000 0 7372499.080 -8440153.260 -22888926.424 10 0 61010 47700.00000 0 9122317.482 -6208879.753 -22973917.810 10 0 61010 48600.00000 0 11017305.433 -4122833.713 -22611641.134 10 0 61010 49500.00000 0 13006512.522 -2229455.675 -21809241.854 10 0 61010 50400.00000 0 15032009.124 -566089.056 -20582440.918 10 0 61010 51300.00000 0 17031184.564 841353.827 -18955219.794 10 0 61010 52200.00000 0 18939257.789 1979234.267 -16959343.999 10 0 61010 53100.00000 0 20691895.164 2846504.729 -14633735.043 10 0 61010 54000.00000 0 22227825.616 3454490.239 -12023703.586 10 0 61010 54900.00000 0 23491343.572 3826145.052 -9180059.299 10 0 61010 55800.00000 0 24434594.924 3994818.035 -6158115.381 10 0 61010 56700.00000 0 25019550.602 4002580.941 -3016607.649 10 0 61010 57600.00000 0 25219585.562 3898191.860 183450.299 10 0 61010 58500.00000 0 25020597.738 3734781.350 3379953.136 10 0 61010 59400.00000 0 24421620.935 3567360.078 6510907.794 10 0 61010 60300.00000 0 23434906.856 3450253.922 9515631.958 10 0 61010 61200.00000 0 22085473.720 3434575.194 12335923.956 10 0 61010 62100.00000 0 20410141.035 3565836.699 14917181.826 10 0 61010 63000.00000 0 18456091.307 3881809.024 17209450.586 10 0 61010 63900.00000 0 16279018.877 4410711.001 19168378.321 10 0 61010 64800.00000 0 13940942.773 5169809.205 20756063.715 10 0 61010 65700.00000 0 11507774.021 6164485.233 21941779.764 10 0 61010 66600.00000 0 9046737.599 7387810.118 22702560.784 10 0 61010 67500.00000 0 6623754.874 8820644.299 23023642.305 10 0 61010 68400.00000 0 4300893.749 10432260.009 22898745.991 10 0 61010 69300.00000 0 2133990.862 12181461.441 22330204.373 10 0 61010 70200.00000 0 170543.109 14018157.639 21328922.824 10 0 61010 71100.00000 0 -1552045.200 15885324.359 19914178.952 10 0 61010 72000.00000 0 -3007787.677 17721274.839 18113262.340 10 0 61010 72900.00000 0 -4182959.166 19462146.442 15960960.353 10 0 61010 73800.00000 0 -5076422.268 21044500.655 13498898.532 10 0 61010 74700.00000 0 -5699423.530 22407928.635 10774746.948 10 0 61010 75600.00000 0 -6074867.780 23497553.641 7841306.547 10 0 61010 76500.00000 0 -6236100.946 24266325.272 4755492.164 10 0 61010 77400.00000 0 -6225252.469 24677008.532 1577231.270 10 0 61010 78300.00000 0 -6091207.272 24703783.026 -1631700.421 10 0 61010 79200.00000 0 -5887293.230 24333383.594 -4808883.723 10 0 61010 80100.00000 0 -5668782.564 23565732.817 -7892477.063 10 0 61010 81000.00000 0 -5490313.852 22414037.225 -10822429.291 10 0 61010 81900.00000 0 -5403345.062 20904341.764 -13541659.516 10 0 61010 82800.00000 0 -5453746.916 19074560.161 -15997179.826 10 0 61010 83700.00000 0 -5679640.081 16973021.225 -18141137.904 10 0 61010 84600.00000 0 -6109569.307 14656591.713 -19931758.287 10 0 61010 85500.00000 0 -6761093.230 12188454.485 -21334163.141 10 0 61011 0.00000 0 -7639850.656 9635635.438 -22321056.029 10 0 61011 900.00000 0 -8739144.356 7066381.686 -22873255.565 10 0 61011 1800.00000 0 -10040059.501 4547504.300 -22980067.371 10 0 61011 2700.00000 0 -11512113.860 2141792.298 -22639489.063 10 0 61011 3600.00000 0 -13114411.567 -94390.896 -21858243.258 10 0 61011 4500.00000 0 -14797252.415 -2113229.940 -20651639.038 10 0 61011 5400.00000 0 -16504128.887 -3877211.020 -19043265.010 10 0 61011 6300.00000 0 -18174026.806 -5360434.283 -17064520.501 10 0 61011 7200.00000 0 -19743932.715 -6549432.042 -14753994.615 10 0 61011 8100.00000 0 -21151442.446 -7443460.468 -12156705.817 10 0 61011 9000.00000 0 -22337361.168 -8054254.798 -9323217.437 10 0 61011 9900.00000 0 -23248185.671 -8405260.617 -6308646.906 10 0 61011 10800.00000 0 -23838364.762 -8530375.828 -3171588.550 10 0 61011 11700.00000 0 -24072243.139 -8472258.389 27028.594 10 0 61011 12600.00000 0 -23925607.585 -8280272.955 3225125.323 10 0 61011 13500.00000 0 -23386771.179 -8008164.461 6360675.870 10 0 61011 14400.00000 0 -22457150.704 -7711557.843 9372907.155 10 0 61011 15300.00000 0 -21151313.684 -7445389.966 12203470.555 10 0 61011 16200.00000 0 -19496493.615 -7261382.265 14797563.902 10 0 61011 17100.00000 0 -17531593.972 -7205660.482 17104982.702 10 0 61011 18000.00000 0 -15305722.608 -7316621.396 19081081.094 10 0 61011 18900.00000 0 -12876317.347 -7623135.843 20687625.072 10 0 61011 19800.00000 0 -10306940.086 -8143163.189 21893522.615 10 0 61011 20700.00000 0 -7664830.129 -8882835.225 22675417.694 10 0 61011 21600.00000 0 -5018317.012 -9836048.066 23018137.632 10 0 61011 22500.00000 0 -2434198.620 -10984579.702 22914985.811 10 0 61011 23400.00000 0 24808.222 -12298729.240 22367874.367 10 0 61011 24300.00000 0 2302440.564 -13738452.446 21387294.168 10 0 61011 25200.00000 0 4350988.528 -15254947.703 19992122.108 10 0 61011 26100.00000 0 6133034.850 -16792627.817 18209268.491 10 0 61011 27000.00000 0 7622763.322 -18291396.850 16073170.123 10 0 61011 27900.00000 0 8806782.182 -19689138.186 13625137.462 10 0 61011 28800.00000 0 9684428.307 -20924310.680 10912567.113 10 0 61011 29700.00000 0 10267539.525 -21938544.610 7988033.563 10 0 61011 30600.00000 0 10579704.483 -22679128.535 4908276.729 10 0 61011 31500.00000 0 10655021.457 -23101282.009 1733104.284 10 0 61011 32400.00000 0 10536418.342 -23170117.524 -1475770.206 10 0 61011 33300.00000 0 10273604.871 -22862207.688 -4655930.644 10 0 61011 34200.00000 0 9920743.965 -22166689.927 -7745479.248 10 0 61011 35100.00000 0 9533941.476 -21085860.435 -10684250.317 10 0 61011 36000.00000 0 9168661.530 -19635230.635 -13414992.212 10 0 61011 36900.00000 0 8877178.132 -17843042.285 -15884493.360 10 0 61011 37800.00000 0 8706172.323 -15749260.459 -18044629.242 10 0 61011 38700.00000 0 8694577.936 -13404085.841 -19853309.000 10 0 61011 39600.00000 0 8871768.470 -10866048.320 -21275302.455 10 0 61011 40500.00000 0 9256162.845 -8199761.604 -22282930.910 10 0 61011 41400.00000 0 9854309.917 -5473432.827 -22856608.076 10 0 61011 42300.00000 0 10660491.020 -2756231.464 -22985220.575 10 0 61011 43200.00000 0 11656857.727 -115627.502 -22666340.822 10 0 61011 44100.00000 0 12814099.123 2385190.087 -21906268.537 10 0 61011 45000.00000 0 14092610.409 4689707.126 -20719900.512 10 0 61011 45900.00000 0 15444113.353 6750191.057 -19130431.754 10 0 61011 46800.00000 0 16813660.001 8529423.916 -17168894.339 10 0 61011 47700.00000 0 18141934.879 10001990.440 -14873543.574 10 0 61011 48600.00000 0 19367758.370 11155069.247 -12289104.021 10 0 61011 49500.00000 0 20430685.563 11988696.038 -9465890.625 10 0 61011 50400.00000 0 21273590.949 12515490.003 -6458822.673 10 0 61011 51300.00000 0 21845130.098 12759857.252 -3326350.347 10 0 61011 52200.00000 0 22101974.828 12756706.992 -129315.220 10 0 61011 53100.00000 0 22010728.075 12549736.484 3070232.663 10 0 61011 54000.00000 0 21549438.342 12189358.740 6210237.931 10 0 61011 54900.00000 0 20708650.545 11730361.574 9229839.799 10 0 61011 55800.00000 0 19491949.611 11229397.518 12070545.615 10 0 61011 56700.00000 0 17915974.407 10742410.771 14677355.749 10 0 61011 57600.00000 0 16009901.590 10322109.540 16999818.687 10 0 61011 58500.00000 0 13814420.875 10015589.825 18992996.836 10 0 61011 59400.00000 0 11380244.095 9862210.047 20618325.403 10 0 61011 60300.00000 0 8766209.356 9891805.186 21844348.909 10 0 61011 61200.00000 0 6037058.085 10123314.920 22647322.174 10 0 61011 62100.00000 0 3260975.890 10563882.964 23011665.098 10 0 61011 63000.00000 0 506997.624 11208465.449 22930263.134 10 0 61011 63900.00000 0 -2157617.419 12039965.144 22404607.910 10 0 61011 64800.00000 0 -4669933.096 13029886.791 21444775.209 10 0 61011 65700.00000 0 -6973702.723 14139487.299 20069240.156 10 0 61011 66600.00000 0 -9021457.213 15321374.067 18304532.297 10 0 61011 67500.00000 0 -10776229.318 16521486.010 16184736.014 10 0 61011 68400.00000 0 -12212842.892 17681375.689 13750844.523 10 0 61011 69300.00000 0 -13318713.750 18740697.941 11049978.579 10 0 61011 70200.00000 0 -14094128.728 19639801.281 8134483.687 10 0 61011 71100.00000 0 -14551991.132 20322313.378 5060922.239 10 0 61011 72000.00000 0 -14717043.047 20737611.477 1888979.466 10 0 61011 72900.00000 0 -14624597.052 20843072.892 -1319695.876 10 0 61011 73800.00000 0 -14318830.773 20606009.365 -4502693.422 10 0 61011 74700.00000 0 -13850716.455 20005202.081 -7598061.792 10 0 61011 75600.00000 0 -13275673.540 19031970.732 -10545523.263 10 0 61011 76500.00000 0 -12651044.272 17690729.668 -13287657.853 10 0 61011 77400.00000 0 -12033500.158 15999005.904 -15771032.551 10 0 61011 78300.00000 0 -11476490.145 13986916.680 -17947252.630 10 0 61011 79200.00000 0 -11027839.716 11696127.277 -19773913.580 10 0 61011 80100.00000 0 -10727603.581 9178331.972 -21215434.321 10 0 61011 81000.00000 0 -10606263.740 6493321.278 -22243754.986 10 0 61011 81900.00000 0 -10683349.806 3706716.079 -22838885.399 10 0 61011 82800.00000 0 -10966540.360 887463.372 -22989293.582 10 0 61011 83700.00000 0 -11451283.423 -1894801.811 -22692126.919 10 0 61011 84600.00000 0 -12120952.016 -4572418.238 -21953262.019 10 0 61011 85500.00000 0 -12947527.892 -7082273.232 -20787182.808 10 0 61012 0.00000 0 -13892784.045 -9368183.190 -19216689.884 10 0 61012 900.00000 0 -14909916.037 -11382982.527 -17272446.468 10 0 61012 1800.00000 0 -15945551.404 -13090231.968 -14992372.570 10 0 61012 2700.00000 0 -16942053.469 -14465480.332 -12420896.963 10 0 61012 3600.00000 0 -17840020.587 -15497025.778 -9608084.120 10 0 61012 4500.00000 0 -18580875.465 -16186147.911 -6608652.951 10 0 61012 5400.00000 0 -19109434.985 -16546803.012 -3480907.139 10 0 61012 6300.00000 0 -19376352.073 -16604797.391 -285598.357 10 0 61012 7200.00000 0 -19340326.745 -16396475.715 2915255.058 10 0 61012 8100.00000 0 -18969993.395 -15966981.328 6059570.757 10 0 61012 9000.00000 0 -18245405.192 -15368163.302 9086402.945 10 0 61012 9900.00000 0 -17159053.496 -14656219.397 11937117.677 10 0 61012 10800.00000 0 -15716379.775 -13889174.750 14556520.548 10 0 61012 11700.00000 0 -13935758.626 -13124302.530 16893915.600 10 0 61012 12600.00000 0 -11847952.508 -12415594.769 18904075.860 10 0 61012 13500.00000 0 -9495060.488 -11811389.072 20548107.791 10 0 61012 14400.00000 0 -6929004.020 -11352250.086 21794194.119 10 0 61012 15300.00000 0 -4209611.658 -11069193.823 22618201.726 10 0 61012 16200.00000 0 -1402380.821 -10982328.591 23004143.861 10 0 61012 17100.00000 0 1423992.194 -11099969.041 22944488.355 10 0 61012 18000.00000 0 4200213.300 -11418260.364 22440306.229 10 0 61012 18900.00000 0 6859016.818 -11921328.668 21501257.696 10 0 61012 19800.00000 0 9337709.616 -12581951.954 20145415.303 10 0 61012 20700.00000 0 11580529.087 -13362724.575 18398926.726 10 0 61012 21600.00000 0 13540718.188 -14217667.583 16295522.531 10 0 61012 22500.00000 0 15182232.032 -15094218.651 13875877.025 10 0 61012 23400.00000 0 16481005.313 -15935519.098 11186833.169 10 0 61012 24300.00000 0 17425727.730 -16682902.711 8280505.253 10 0 61012 25200.00000 0 18018094.803 -17278482.013 5213275.653 10 0 61012 26100.00000 0 18272523.253 -17667722.892 2044704.435 10 0 61012 27000.00000 0 18215342.582 -17801898.405 -1163627.328 10 0 61012 27900.00000 0 17883496.641 -17640317.054 -4349317.969 10 0 61012 28800.00000 0 17322809.930 -17152229.914 -7450365.461 10 0 61012 29700.00000 0 16585891.991 -16318334.263 -10406382.938 10 0 61012 30600.00000 0 15729768.969 -15131808.236 -13159784.792 10 0 61012 31500.00000 0 14813343.165 -13598830.894 -15656919.105 10 0 61012 32400.00000 0 13894788.949 -11738563.972 -17849123.223 10 0 61012 33300.00000 0 13028996.106 -9582594.434 -19693680.970 10 0 61012 34200.00000 0 12265169.684 -7173860.081 -21154662.024 10 0 61012 35100.00000 0 11644688.582 -4565102.312 -22203626.620 10 0 61012 36000.00000 0 11199313.940 -1816910.307 -22820181.562 10 0 61012 36900.00000 0 10949823.293 1004561.884 -22992376.718 10 0 61012 37800.00000 0 10905128.145 3830110.076 -22716934.457 10 0 61012 38700.00000 0 11061911.897 6590121.677 -21999307.915 10 0 61012 39600.00000 0 11404802.833 9217234.248 -20853567.412 10 0 61012 40500.00000 0 11907074.097 11648900.333 -19302117.759 10 0 61012 41400.00000 0 12531840.214 13829752.086 -17375252.530 10 0 61012 42300.00000 0 13233698.683 15713667.806 -15110554.546 10 0 61012 43200.00000 0 13960746.389 17265455.215 -12552154.873 10 0 61012 44100.00000 0 14656884.822 18462082.615 -9749865.327 10 0 61012 45000.00000 0 15264316.028 19293408.111 -6758202.010 10 0 61012 45900.00000 0 15726123.299 19762378.343 -3635319.454 10 0 61012 46800.00000 0 15988827.307 19884690.445 -441876.608 10 0 61012 47700.00000 0 16004809.593 19687933.475 2760142.816 10 0 61012 48600.00000 0 15734501.218 19210247.287 5908632.428 10 0 61012 49500.00000 0 15148244.466 18498556.856 8942564.307 10 0 61012 50400.00000 0 14227749.423 17606457.507 11803165.963 10 0 61012 51300.00000 0 12967084.386 16591840.789 14435050.780 10 0 61012 52200.00000 0 11373158.576 15514361.044 16787280.702 10 0 61012 53100.00000 0 9465676.776 14432848.982 18814341.459 10 0 61012 54000.00000 0 7276567.358 13402780.243 20477012.563 10 0 61012 54900.00000 0 4848906.743 12473904.344 21743116.413 10 0 61012 55800.00000 0 2235383.991 11688132.346 22588133.072 10 0 61012 56700.00000 0 -503632.086 11077770.799 22995669.840 10 0 61012 57600.00000 0 -3302344.772 10664174.981 22957777.194 10 0 61012 58500.00000 0 -6092008.647 10456877.289 22475105.327 10 0 61012 59400.00000 0 -8803535.268 10453226.998 21556898.161 10 0 61012 60300.00000 0 -11370119.101 10638556.652 20220824.438 10 0 61012 61200.00000 0 -13729776.330 10986868.622 18492648.267 10 0 61012 62100.00000 0 -15827692.395 11462013.871 16405744.281 10 0 61012 63000.00000 0 -17618281.558 12019314.404 14000465.421 10 0 61012 63900.00000 0 -19066873.142 12607562.188 11323374.164 10 0 61012 64800.00000 0 -20150954.206 13171311.258 8426350.770 10 0 61012 65700.00000 0 -20860916.457 13653366.950 5365594.733 10 0 61012 66600.00000 0 -21200275.663 13997367.338 2200538.126 10 0 61012 67500.00000 0 -21185353.865 14150347.505 -1007308.430 10 0 61012 68400.00000 0 -20844437.244 14065177.366 -4195554.634 10 0 61012 69300.00000 0 -20216444.843 13702768.674 -7302150.383 10 0 61012 70200.00000 0 -19349164.170 13033956.156 -10266602.109 10 0 61012 71100.00000 0 -18297128.383 12040971.348 -13031160.885 10 0 61012 72000.00000 0 -17119225.147 10718444.837 -15541957.977 10 0 61012 72900.00000 0 -15876138.870 9073892.637 -17750064.653 10 0 61012 73800.00000 0 -14627735.114 7127664.368 -19612454.610 10 0 61012 74700.00000 0 -13430498.475 4912353.902 -21092849.479 10 0 61012 75600.00000 0 -12335132.774 2471695.988 -22162430.411 10 0 61012 76500.00000 0 -11384425.324 -141005.783 -22800401.618 10 0 61012 77400.00000 0 -10611465.584 -2864854.375 -22994394.853 10 0 61012 78300.00000 0 -10038293.183 -5633655.824 -22740707.129 10 0 61012 79200.00000 0 -9675031.875 -8378441.117 -22044367.393 10 0 61012 80100.00000 0 -9519545.168 -11030108.240 -20919031.297 10 0 61012 81000.00000 0 -9557627.114 -13522074.313 -19386706.654 10 0 61012 81900.00000 0 -9763719.012 -15792827.491 -17477315.458 10 0 61012 82800.00000 0 -10102120.454 -17788272.566 -15228101.610 10 0 61012 83700.00000 0 -10528642.301 -19463773.165 -12682896.461 10 0 61012 84600.00000 0 -10992630.495 -20785806.277 -9891257.087 10 0 61012 85500.00000 0 -11439274.141 -21733161.260 -6907494.658 10 0 61013 0.00000 0 -11812099.348 -22297634.748 -3789612.716 10 0 61013 900.00000 0 -12055542.985 -22484194.373 -598174.805 10 0 61013 1800.00000 0 -12117496.671 -22310605.617 2604871.833 10 0 61013 2700.00000 0 -11951714.043 -21806540.312 5757398.931 10 0 61013 3600.00000 0 -11519979.181 -21012204.987 8798298.634 10 0 61013 4500.00000 0 -10793945.085 -19976548.397 11668662.147 10 0 61013 5400.00000 0 -9756564.943 -18755124.356 14312912.902 10 0 61013 6300.00000 0 -8403056.056 -17407700.046 16679872.947 10 0 61013 7200.00000 0 -6741355.902 -15995710.131 18723742.808 10 0 61013 8100.00000 0 -4792050.846 -14579662.956 20404976.950 10 0 61013 9000.00000 0 -2587779.771 -13216606.622 21691039.067 10 0 61013 9900.00000 0 -172136.428 -11957759.950 22557023.691 10 0 61013 10800.00000 0 2401885.185 -10846406.212 22986133.086 10 0 61013 11700.00000 0 5073839.540 -9916136.547 22970000.895 10 0 61013 12600.00000 0 7778093.310 -9189515.506 22508856.609 10 0 61013 13500.00000 0 10446312.168 -8677223.828 21611527.613 10 0 61013 14400.00000 0 13010069.395 -8377713.946 20295278.249 10 0 61013 15300.00000 0 15403469.699 -8277392.678 18585488.121 10 0 61013 16200.00000 0 17565680.679 -8351323.807 16515174.691 10 0 61013 17100.00000 0 19443267.635 -8564421.666 14124367.979 10 0 61013 18000.00000 0 20992235.040 -8873086.305 11459348.108 10 0 61013 18900.00000 0 22179689.597 -9227212.114 8571759.114 10 0 61013 19800.00000 0 22985055.123 -9572485.757 5517615.118 10 0 61013 20700.00000 0 23400787.815 -9852876.637 2356217.418 10 0 61013 21600.00000 0 23432561.213 -10013214.454 -850996.795 10 0 61013 22500.00000 0 23098912.346 -10001744.181 -4041651.700 10 0 61013 23400.00000 0 22430363.364 -9772549.230 -7153652.249 10 0 61013 24300.00000 0 21468055.260 -9287738.751 -10126401.218 10 0 61013 25200.00000 0 20261951.121 -8519304.677 -12901989.225 10 0 61013 26100.00000 0 18868684.909 -7450568.034 -15426333.347 10 0 61013 27000.00000 0 17349146.881 -6077151.362 -17650241.100 10 0 61013 27900.00000 0 15765908.108 -4407434.278 -19530378.058 10 0 61013 28800.00000 0 14180593.347 -2462471.270 -21030119.453 10 0 61013 29700.00000 0 12651313.634 -275373.715 -22120268.633 10 0 61013 30600.00000 0 11230267.197 2109819.066 -22779628.099 10 0 61013 31500.00000 0 9961609.925 4639733.181 -22995411.960 10 0 61013 32400.00000 0 8879684.916 7253651.765 -22763491.921 10 0 61013 33300.00000 0 8007685.105 9885821.814 -22088472.371 10 0 61013 34200.00000 0 7356804.432 12467979.967 -20983593.532 10 0 61013 35100.00000 0 6925912.081 14931991.857 -19470465.074 10 0 61013 36000.00000 0 6701762.084 17212494.956 -17578635.926 10 0 61013 36900.00000 0 6659727.870 19249434.774 -15345009.256 10 0 61013 37800.00000 0 6765029.080 20990388.939 -12813114.608 10 0 61013 38700.00000 0 6974397.278 22392582.731 -10032251.942 10 0 61013 39600.00000 0 7238108.681 23424512.726 -7056524.898 10 0 61013 40500.00000 0 7502296.731 24067111.836 -3943782.667 10 0 61013 41400.00000 0 7711445.723 24314408.418 -754491.579 10 0 61013 42300.00000 0 7810959.336 24173653.416 2449441.144 10 0 61013 43200.00000 0 7749695.059 23664911.826 5605868.335 10 0 61013 44100.00000 0 7482357.279 22820137.208 8653605.111 10 0 61013 45000.00000 0 6971648.030 21681769.353 11533609.125 10 0 61013 45900.00000 0 6190084.857 20300914.953 14190116.408 10 0 61013 46800.00000 0 5121409.403 18735188.100 16571711.437 10 0 61013 47700.00000 0 3761527.491 17046301.210 18632311.600 10 0 61013 48600.00000 0 2118941.079 15297506.881 20332048.090 10 0 61013 49500.00000 0 214653.419 13550996.878 21638027.368 10 0 61013 50400.00000 0 -1918449.510 11865365.887 22524959.551 10 0 61013 51300.00000 0 -4236716.779 10293244.652 22975642.593 10 0 61013 52200.00000 0 -6687304.595 8879199.902 22981293.578 10 0 61013 53100.00000 0 -9210139.153 7657987.490 22541721.086 10 0 61013 54000.00000 0 -11740190.683 6653230.539 21665335.222 10 0 61013 54900.00000 0 -14209966.250 5876577.051 20368994.648 10 0 61013 55800.00000 0 -16552119.499 5327371.764 18677692.663 10 0 61013 56700.00000 0 -18702070.434 4992855.903 16624087.267 10 0 61013 57600.00000 0 -20600527.340 4848886.681 14247882.866 10 0 61013 58500.00000 0 -22195806.406 4861146.769 11595074.228 10 0 61013 59400.00000 0 -23445852.454 4986793.344 8717065.975 10 0 61013 60300.00000 0 -24319876.023 5176477.707 5669683.582 10 0 61013 61200.00000 0 -24799537.631 5376650.437 2512094.334 10 0 61013 62100.00000 0 -24879628.679 5532054.622 -694341.174 10 0 61013 63000.00000 0 -24568219.424 5588301.188 -3887264.607 10 0 61013 63900.00000 0 -23886266.895 5494416.419 -7004538.815 10 0 61013 64800.00000 0 -22866698.464 5205252.482 -9985465.578 10 0 61013 65700.00000 0 -21553009.238 4683657.244 -12771977.497 10 0 61013 66600.00000 0 -19997432.129 3902309.697 -15309779.646 10 0 61013 67500.00000 0 -18258757.841 2845141.421 -17549417.657 10 0 61013 68400.00000 0 -16399896.927 1508282.052 -19447250.468 10 0 61013 69300.00000 0 -14485287.060 -99512.860 -20966307.952 10 0 61013 70200.00000 0 -12578255.155 -1956971.257 -22077016.197 10 0 61013 71100.00000 0 -10738445.652 -4030947.910 -22757776.026 10 0 61013 72000.00000 0 -9019423.332 -6277575.637 -22995383.419 10 0 61013 72900.00000 0 -7466551.266 -8643876.782 -22785283.810 10 0 61013 73800.00000 0 -6115232.584 -11069767.900 -22131655.639 10 0 61013 74700.00000 0 -4989589.118 -13490373.878 -21047321.933 10 0 61013 75600.00000 0 -4101631.209 -15838554.810 -19553492.156 10 0 61013 76500.00000 0 -3450952.068 -18047539.999 -17679339.891 10 0 61013 77400.00000 0 -3024957.774 -20053559.001 -15461425.160 10 0 61013 78300.00000 0 -2799621.303 -21798359.889 -12942973.227 10 0 61013 79200.00000 0 -2740726.871 -23231509.784 -10173024.494 10 0 61013 80100.00000 0 -2805550.216 -24312381.953 -7205472.709 10 0 61013 81000.00000 0 -2944902.203 -25011747.119 -4098010.758 10 0 61013 81900.00000 0 -3105447.972 -25312903.417 -911005.105 10 0 61013 82800.00000 0 -3232202.508 -25212298.868 2293678.738 10 0 61013 83700.00000 0 -3271096.411 -24719621.651 5453876.567 10 0 61013 84600.00000 0 -3171502.977 -23857355.745 8508328.249 10 0 61013 85500.00000 0 -2888619.763 -22659821.790 11397859.626 99